STARLINK-36369, 67723

Orbit data source: Space-Track

STARLINK-36369, 67723 is a payload satellite owned by SpaceX/Seattle (US) in SSO that was launched on Wed, 11 Feb 2026 UTC via an FALCON 9 launch vehicle from the Air Force Western Test Range (AFWTR). Payload-class satellites include a variety of spacecraft equipped with specific instruments for various scientific and technological missions. These include communications satellites like Starlink; space stations such as the ISS; scientific satellites like the Hubble; Earth observation satellites from companies like Planet Labs, Umbra, and HawkEye 360; GPS; miniature CubeSats for education and research; and military/defense satellites.

Loading next visibility...
Identifier
67723, 2026-026C
Orbit
SSO
Country
Flag of USUS
Related business
Manufacturer
SpaceX/Seattle
Mission
Operational Commercial Communications
Bus & Motor
STARLINK V2MO, Unknown motor
Mass
575 kg wet, ~530 kg dry
Launch date (UTC)
2026-02-11 (3 months ago)
Launch vehicle
FALCON 9
Launch site
Air Force Western Test Range (AFWTR)
Object type
Payload
Rocket body
Debris
Shape & HBR
Box + 2 Pan, 17.7 m
Radar Cross Section
36.964 m²

Expand to show TLE details & history
Last TLE update: 9 hours ago

TLE from 9 hours ago
0 STARLINK-36369
1 67723U 26026C   26130.09886433 -.00009473  00000-0 -29159-3 0  9998
2 67723  97.2848 183.7819 0000596 111.3531 248.7775 15.33433628 13537
Epoch: 2026-05-10T02:22Z
TLE epoch observation values (Epoch: 2026-05-10T02:22:21.878Z)
Latitude
-0.00004°
Longitude
-79.71607°
Altitude
468.837 km
Speed
7.632 km/s
True Right ascension
12h 15m 07s
True Declination
0° 00' 00"
Sunlit
Object was in full shadow at epoch
Visualization orbit readout
Latitude
Unknown
Longitude
Unknown
Altitude
Unknown
Speed
Unknown
Apparent Right ascension
Unknown
Apparent Declination
Unknown
Sunlit
N/A
Visualization observer readout
Local Sidereal Time
19:48:32
Azimuth
Unknown
Elevation
Unknown
Doppler factor
Unknown
Orbital elements
Apogee altitude
462.927 km
Perigee altitude
462.112 km
Semi-major axis
6,840.657 km
Eccentricity
0.00006
Inclination
97.2848°
RAAN
183.7819°
Arg. of periapsis
111.3531°
True anomaly
248.77113°
Mean anomaly
248.7775°
Eccentric anomaly
248.77432°
Mean motion
3.83616 °/min
Orbital period
93.84 mins
BSTAR
-0.00029159
Loading maneuver chart data...
Computing Atmospheric mass density...
Loading historical data...
Loading historical data...
Loading historical data...
Loading historical data...
Loading historical data...
Loading historical data...
Loading historical data...

Documentation

Showing up to 5 results
|